EW3591 Weather Reports


Display with metric or nautical units.
time (UTC)temp
F
wind
direction
speed
MPH
gust
MPH
rain 1hr
in
rain 24hr
in
rain mn
in
humidity
%
barometer
mb
20260831033934 66 233 0.0 3.0 0.00 0.33 0.33 100 1018.7
20260831033733 66 236 0.0 4.0 0.00 0.33 0.33 100 1018.7
20260831033533 66 240 0.0 4.0 0.00 0.33 0.33 100 1018.7
20260831033333 66 240 0.0 4.0 0.00 0.33 0.33 100 1018.7
20260831033132 66 240 1.0 4.0 0.00 0.33 0.33 100 1018.7
20260831032932 66 239 1.0 4.0 0.00 0.33 0.33 100 1018.7
20260831032732 66 237 0.0 4.0 0.00 0.33 0.33 100 1018.7
20260831032531 66 237 1.0 4.0 0.00 0.33 0.33 100 1018.7
20260831032331 66 237 1.0 3.0 0.00 0.33 0.33 100 1018.8
20260831032131 66 237 1.0 2.0 0.00 0.33 0.33 100 1018.9
20260831031930 66 237 0.0 1.0 0.00 0.33 0.33 100 1018.9
20260831031730 66 237 0.0 1.0 0.00 0.33 0.33 100 1018.9
20260831031530 66 237 0.0 2.0 0.00 0.33 0.33 100 1018.8
20260831031330 66 237 0.0 2.0 0.00 0.33 0.33 100 1018.9
20260831031129 66 237 0.0 2.0 0.00 0.33 0.33 100 1018.9
20260831030929 66 237 0.0 2.0 0.00 0.33 0.33 100 1018.9
20260831030729 66 237 0.0 2.0 0.00 0.33 0.33 100 1019.0
20260831030528 66 237 0.0 2.0 0.00 0.33 0.33 100 1019.0
20260831030328 66 237 0.0 2.0 0.00 0.33 0.33 100 1019.1
20260831030128 66 235 0.0 2.0 0.00 0.33 0.33 100 1019.1
20260831025927 66 234 0.0 2.0 0.00 0.33 0.33 100 1019.1
20260831025727 66 234 0.0 2.0 0.00 0.33 0.33 100 1019.0
20260831025527 66 234 0.0 2.0 0.00 0.33 0.33 100 1019.1
20260831025326 66 234 0.0 2.0 0.00 0.33 0.33 100 1019.1
20260831025126 66 234 0.0 2.0 0.00 0.33 0.33 100 1019.0
20260831024926 66 232 0.0 2.0 0.00 0.33 0.33 100 1019.0
20260831024725 66 229 1.0 2.0 0.00 0.33 0.33 100 1019.1
20260831024525 66 225 0.0 2.0 0.00 0.33 0.33 100 1019.0
20260831024325 66 224 0.0 2.0 0.00 0.33 0.33 100 1019.0
20260831024125 66 224 0.0 2.0 0.00 0.33 0.33 100 1019.1
20260831023924 66 224 0.0 2.0 0.00 0.33 0.33 100 1019.0
20260831023724 66 224 0.0 2.0 0.00 0.33 0.33 100 1019.1
20260831023524 66 224 0.0 2.0 0.00 0.33 0.33 100 1019.1
20260831023323 66 224 0.0 2.0 0.00 0.33 0.33 100 1019.1
20260831023123 66 224 0.0 1.0 0.00 0.33 0.33 100 1019.2
20260831022923 66 224 0.0 1.0 0.00 0.33 0.33 100 1019.2
20260831022722 66 224 0.0 1.0 0.00 0.33 0.33 100 1019.3
20260831022522 66 224 0.0 2.0 0.00 0.33 0.33 100 1019.3
20260831022322 66 0 0.0 2.0 0.00 0.33 0.33 100 1019.3
20260831022121 66 224 0.0 3.0 0.00 0.33 0.33 100 1019.3
20260831021921 66 224 0.0 3.0 0.01 0.33 0.33 100 1019.4
20260831021721 66 224 0.0 3.0 0.01 0.33 0.33 100 1019.4
20260831021520 66 224 0.0 3.0 0.01 0.33 0.33 100 1019.4
20260831021320 66 224 1.0 3.0 0.01 0.33 0.33 100 1019.3
20260831021120 66 224 0.0 2.0 0.01 0.33 0.33 100 1019.3
20260831020920 66 224 0.0 2.0 0.01 0.33 0.33 100 1019.3
20260831020719 66 224 0.0 2.0 0.02 0.33 0.33 100 1019.2
20260831020519 66 224 0.0 2.0 0.02 0.33 0.33 100 1019.1
20260831020319 66 224 0.0 2.0 0.02 0.33 0.33 100 1019.2
20260831020118 66 224 0.0 2.0 0.02 0.33 0.33 100 1019.2
20260831015918 66 224 0.0 3.0 0.02 0.33 0.33 100 1019.3
20260831015718 66 224 0.0 3.0 0.02 0.33 0.33 100 1019.3
20260831015517 66 224 0.0 3.0 0.02 0.33 0.33 100 1019.2
20260831015317 66 224 1.0 3.0 0.03 0.33 0.33 100 1019.3
20260831015117 66 224 1.0 3.0 0.03 0.33 0.33 100 1019.3
20260831014916 66 224 0.0 3.0 0.04 0.33 0.33 100 1019.3
20260831014716 66 224 0.0 1.0 0.04 0.33 0.33 100 1019.3
20260831014516 66 224 0.0 2.0 0.04 0.33 0.33 100 1019.3
20260831014315 66 224 0.0 2.0 0.05 0.33 0.33 100 1019.3
20260831014115 66 224 0.0 2.0 0.05 0.33 0.33 100 1019.3
20260831013915 66 224 0.0 2.0 0.05 0.33 0.33 100 1019.4
20260831013714 66 224 0.0 2.0 0.05 0.33 0.33 100 1019.5
20260831013514 66 224 0.0 2.0 0.05 0.33 0.33 100 1019.6
20260831013314 66 0 0.0 2.0 0.06 0.33 0.33 100 1019.6
20260831013114 66 224 0.0 2.0 0.06 0.33 0.33 100 1019.7
20260831012913 66 224 0.0 2.0 0.06 0.33 0.33 100 1019.7
20260831012713 66 0 0.0 2.0 0.06 0.33 0.33 100 1019.7
20260831012513 66 0 0.0 2.0 0.07 0.33 0.33 100 1019.7
20260831012313 66 0 0.0 2.0 0.07 0.33 0.33 100 1019.8
20260831012112 66 224 0.0 2.0 0.08 0.33 0.33 100 1019.8
20260831011912 66 224 0.0 2.0 0.08 0.32 0.32 100 1019.7
20260831011711 66 0 0.0 2.0 0.09 0.32 0.32 100 1019.7
20260831011511 66 224 0.0 2.0 0.09 0.32 0.32 100 1019.7
20260831011311 66 224 0.0 3.0 0.09 0.32 0.32 99 1019.6
20260831011110 66 224 1.0 3.0 0.10 0.32 0.32 100 1019.6
20260831010910 66 224 0.0 3.0 0.09 0.31 0.31 100 1019.7
20260831010710 66 224 1.0 3.0 0.09 0.31 0.31 99 1019.7
20260831010510 66 224 1.0 3.0 0.10 0.31 0.31 99 1019.7
20260831010309 65 224 0.0 1.0 0.10 0.31 0.31 99 1019.6
20260831010109 65 224 0.0 1.0 0.10 0.31 0.31 99 1019.6
20260831005909 65 224 0.0 2.0 0.11 0.31 0.31 99 1019.6
20260831005708 65 224 0.0 2.0 0.11 0.31 0.31 99 1019.6
20260831005508 65 224 0.0 2.0 0.11 0.31 0.31 99 1019.5
20260831005308 65 224 0.0 2.0 0.10 0.30 0.30 99 1019.5
20260831005107 65 224 1.0 2.0 0.11 0.30 0.30 99 1019.5
20260831004907 65 224 0.0 2.0 0.10 0.29 0.29 99 1019.5
20260831004707 65 224 0.0 2.0 0.10 0.29 0.29 99 1019.5
20260831004506 65 224 0.0 3.0 0.10 0.28 0.28 99 1019.4
20260831004306 65 224 0.0 4.0 0.10 0.28 0.28 99 1019.4
20260831004106 65 224 0.0 4.0 0.10 0.28 0.28 99 1019.4
20260831003905 65 224 0.0 4.0 0.11 0.28 0.28 99 1019.5
20260831003705 65 228 1.0 4.0 0.11 0.28 0.28 99 1019.5
20260831003505 65 231 1.0 4.0 0.11 0.27 0.27 99 1019.5
20260831003305 65 234 1.0 3.0 0.11 0.27 0.27 99 1019.4
20260831003104 65 234 1.0 3.0 0.12 0.27 0.27 99 1019.4
20260831002904 65 234 1.0 3.0 0.12 0.27 0.27 99 1019.4
20260831002704 65 234 0.0 3.0 0.12 0.26 0.26 99 1019.4
20260831002503 65 234 0.0 3.0 0.13 0.26 0.26 99 1019.3
20260831002306 65 236 1.0 3.0 0.13 0.26 0.26 99 1019.4
20260831002103 65 243 1.0 3.0 0.12 0.25 0.25 99 1019.3
20260831001902 65 244 1.0 3.0 0.11 0.24 0.24 99 1019.3
20260831001702 65 244 1.0 3.0 0.11 0.23 0.23 99 1019.3
20260831001502 65 244 1.0 3.0 0.11 0.23 0.23 99 1019.3
20260831001301 65 243 1.0 3.0 0.11 0.23 0.23 99 1019.3
20260831001101 65 233 1.0 3.0 0.10 0.22 0.22 99 1019.3
20260831000901 65 223 1.0 3.0 0.10 0.22 0.22 99 1019.3
20260831000701 65 235 1.0 4.0 0.10 0.22 0.22 99 1019.3
20260831000500 65 235 1.0 4.0 0.09 0.21 0.21 99 1019.3
20260831000300 65 230 1.0 4.0 0.09 0.21 0.21 99 1019.3
20260831000100 65 219 2.0 4.0 0.09 0.21 0.21 99 1019.3
20260830235859 65 218 1.0 4.0 0.08 0.20 0.20 99 1019.3
20260830235659 65 224 0.0 1.0 0.08 0.20 0.20 99 1019.3
20260830235459 65 224 0.0 1.0 0.08 0.20 0.20 99 1019.3
20260830235258 65 0 0.0 0.0 0.08 0.19 0.19 99 1019.2
20260830235058 65 0 0.0 1.0 0.08 0.19 0.19 99 1019.2
20260830234858 65 0 0.0 1.0 0.08 0.19 0.19 98 1019.2
20260830234657 65 0 0.0 2.0 0.08 0.19 0.19 98 1019.2
20260830234457 65 0 0.0 2.0 0.07 0.18 0.18 98 1019.1
20260830234257 65 224 0.0 2.0 0.07 0.18 0.18 98 1019.0
20260830234056 65 224 0.0 3.0 0.07 0.18 0.18 98 1019.0
20260830233856 65 224 0.0 3.0 0.06 0.17 0.17 98 1019.0
20260830233656 65 224 1.0 3.0 0.05 0.16 0.16 98 1019.1
20260830233456 65 218 1.0 3.0 0.05 0.16 0.16 98 1019.1
20260830233255 66 216 2.0 3.0 0.04 0.15 0.15 98 1019.1
20260830233055 66 229 1.0 3.0 0.04 0.15 0.15 98 1019.0
20260830232855 66 228 0.0 4.0 0.04 0.15 0.15 98 1019.0
20260830232654 66 228 0.0 4.0 0.03 0.14 0.14 98 1019.0
20260830232454 66 226 1.0 4.0 0.02 0.13 0.13 98 1019.0
20260830232254 66 221 2.0 4.0 0.02 0.13 0.13 98 1019.0
20260830232053 66 218 0.0 4.0 0.02 0.13 0.13 98 1019.0
20260830231853 66 0 0.0 0.0 0.02 0.13 0.13 98 1019.0
20260830231653 66 0 0.0 0.0 0.01 0.12 0.12 98 1019.0
20260830231452 66 0 0.0 0.0 0.01 0.12 0.12 98 1019.0
20260830231252 66 0 0.0 0.0 0.01 0.12 0.12 98 1019.0
20260830231052 66 0 0.0 0.0 0.01 0.12 0.12 98 1018.9
20260830230852 66 0 0.0 0.0 0.01 0.12 0.12 98 1018.9
20260830230651 66 0 0.0 0.0 0.01 0.12 0.12 98 1018.8
20260830230451 66 0 0.0 0.0 0.01 0.12 0.12 98 1018.8
20260830230251 66 0 0.0 0.0 0.01 0.12 0.12 98 1018.8
20260830230050 66 0 0.0 0.0 0.01 0.12 0.12 98 1018.7
20260830225850 66 0 0.0 0.0 0.01 0.12 0.12 98 1018.7
20260830225650 66 0 0.0 0.0 0.01 0.12 0.12 98 1018.6
20260830225449 66 0 0.0 0.0 0.02 0.12 0.12 98 1018.6
20260830225249 66 0 0.0 0.0 0.01 0.11 0.11 98 1018.7
20260830225049 66 0 0.0 0.0 0.01 0.11 0.11 98 1018.9
20260830224848 66 0 0.0 0.0 0.01 0.11 0.11 98 1018.9
20260830224648 66 0 0.0 0.0 0.01 0.11 0.11 98 1018.9
20260830224448 66 0 0.0 0.0 0.01 0.11 0.11 98 1018.9
20260830224248 66 0 0.0 0.0 0.01 0.11 0.11 98 1019.0
20260830224047 66 0 0.0 0.0 0.01 0.11 0.11 98 1018.9
20260830223847 66 0 0.0 0.0 0.01 0.11 0.11 98 1018.9
20260830223647 66 0 0.0 0.0 0.01 0.11 0.11 97 1018.9
20260830223446 66 0 0.0 0.0 0.01 0.11 0.11 98 1018.9
20260830223246 66 0 0.0 0.0 0.01 0.11 0.11 97 1018.9
20260830223046 66 0 0.0 0.0 0.01 0.11 0.11 97 1018.9
20260830222845 66 0 0.0 0.0 0.01 0.11 0.11 97 1019.0
20260830222645 66 0 0.0 0.0 0.01 0.11 0.11 97 1018.9
20260830222445 66 0 0.0 0.0 0.01 0.11 0.11 97 1018.9
20260830222244 66 0 0.0 0.0 0.01 0.11 0.11 97 1019.0
20260830222044 66 0 0.0 0.0 0.01 0.11 0.11 97 1018.9
20260830221844 66 0 0.0 0.0 0.01 0.11 0.11 97 1018.9
20260830221643 66 0 0.0 0.0 0.01 0.11 0.11 97 1019.0
20260830221443 66 0 0.0 0.0 0.01 0.11 0.11 97 1019.0
20260830221243 66 0 0.0 1.0 0.01 0.11 0.11 97 1019.0
20260830221043 66 0 0.0 1.0 0.01 0.11 0.11 97 1018.9
20260830220842 66 0 0.0 1.0 0.01 0.11 0.11 97 1018.9
20260830220642 66 232 0.0 1.0 0.01 0.11 0.11 96 1019.0
20260830220442 66 232 0.0 1.0 0.01 0.11 0.11 96 1019.0
20260830220241 66 0 0.0 1.0 0.01 0.11 0.11 96 1019.0
20260830220041 66 232 0.0 3.0 0.01 0.11 0.11 96 1019.0
20260830215841 66 232 0.0 3.0 0.01 0.11 0.11 96 1019.0
20260830215640 66 232 0.0 3.0 0.01 0.11 0.11 96 1019.0
20260830215440 66 232 1.0 3.0 0.00 0.10 0.10 96 1019.0
20260830215240 66 232 1.0 3.0 0.00 0.10 0.10 96 1019.0
20260830215039 66 232 0.0 2.0 0.00 0.10 0.10 96 1018.9
20260830214839 66 232 0.0 2.0 0.00 0.10 0.10 97 1018.9
20260830214639 66 232 0.0 2.0 0.00 0.10 0.10 97 1018.9
20260830214438 66 232 0.0 2.0 0.00 0.10 0.10 97 1018.9
20260830214238 66 232 0.0 2.0 0.00 0.10 0.10 97 1018.9
20260830214038 66 232 0.0 2.0 0.00 0.10 0.10 97 1019.0
20260830213838 66 232 0.0 2.0 0.00 0.10 0.10 97 1018.9
20260830213637 66 232 1.0 2.0 0.00 0.10 0.10 97 1018.9
20260830213437 66 232 0.0 2.0 0.01 0.10 0.10 97 1018.9
20260830213237 66 232 0.0 2.0 0.01 0.10 0.10 97 1018.9
20260830213036 66 232 0.0 2.0 0.01 0.10 0.10 97 1018.8
20260830212836 66 232 0.0 3.0 0.02 0.10 0.10 97 1018.8
20260830212636 66 232 0.0 3.0 0.02 0.10 0.10 97 1018.9
20260830212435 66 232 0.0 3.0 0.02 0.10 0.10 97 1018.9
20260830212235 66 237 1.0 3.0 0.02 0.10 0.10 97 1018.9
20260830212035 66 245 1.0 3.0 0.02 0.10 0.10 97 1018.9
20260830211834 66 237 0.0 3.0 0.02 0.10 0.10 97 1018.9
20260830211634 66 208 0.0 3.0 0.02 0.10 0.10 97 1018.9
20260830211434 66 197 1.0 3.0 0.02 0.10 0.10 97 1019.0
20260830211233 66 230 0.0 3.0 0.02 0.10 0.10 97 1019.0
20260830211033 66 277 0.0 3.0 0.02 0.10 0.10 97 1019.0
20260830210833 66 277 0.0 3.0 0.03 0.10 0.10 97 1019.0
20260830210632 66 277 0.0 3.0 0.03 0.10 0.10 97 1019.0
20260830210432 66 278 1.0 3.0 0.03 0.10 0.10 96 1018.9
20260830210232 66 232 1.0 3.0 0.03 0.10 0.10 96 1018.9
20260830210032 66 205 0.0 2.0 0.03 0.10 0.10 96 1018.8
20260830205831 66 205 0.0 2.0 0.03 0.10 0.10 96 1018.9
20260830205631 66 205 1.0 2.0 0.03 0.10 0.10 96 1018.9
20260830205431 66 205 0.0 2.0 0.04 0.10 0.10 96 1018.9
20260830205230 66 205 0.0 2.0 0.04 0.10 0.10 96 1018.9
20260830205030 66 205 0.0 2.0 0.04 0.10 0.10 96 1018.9
20260830204830 66 205 0.0 2.0 0.04 0.10 0.10 96 1019.0
20260830204629 66 205 0.0 2.0 0.04 0.10 0.10 96 1018.9
20260830204429 66 205 0.0 3.0 0.04 0.10 0.10 96 1019.0
20260830204229 66 205 1.0 3.0 0.04 0.10 0.10 96 1018.9
20260830204028 66 205 0.0 5.0 0.04 0.10 0.10 96 1019.0
20260830203828 66 205 0.0 5.0 0.04 0.10 0.10 96 1019.0
20260830203628 66 214 1.0 5.0 0.03 0.09 0.09 96 1019.1
20260830203428 66 243 1.0 5.0 0.03 0.09 0.09 96 1019.2
20260830203227 66 242 2.0 5.0 0.04 0.09 0.09 96 1019.2
20260830203027 66 254 0.0 3.0 0.04 0.09 0.09 96 1019.2
20260830202827 66 254 0.0 3.0 0.03 0.08 0.08 96 1019.3
20260830202626 66 252 1.0 3.0 0.03 0.08 0.08 96 1019.3
20260830202426 66 237 0.0 3.0 0.03 0.08 0.08 96 1019.3
20260830202226 66 201 0.0 3.0 0.03 0.08 0.08 96 1019.3
20260830202025 66 187 0.0 3.0 0.03 0.08 0.08 96 1019.3
20260830201825 66 164 0.0 4.0 0.03 0.08 0.08 96 1019.2
20260830201625 66 208 0.0 4.0 0.03 0.08 0.08 95 1019.3
20260830201424 66 243 1.0 4.0 0.03 0.08 0.08 95 1019.3
20260830201224 66 216 1.0 4.0 0.03 0.08 0.08 95 1019.5
20260830201024 66 193 1.0 4.0 0.02 0.07 0.07 95 1019.4
20260830200824 66 211 0.0 4.0 0.02 0.07 0.07 95 1019.3
20260830200623 66 207 0.0 4.0 0.02 0.07 0.07 95 1019.4
20260830200423 66 125 0.0 4.0 0.02 0.07 0.07 95 1019.4
20260830200223 66 241 0.0 4.0 0.02 0.07 0.07 95 1019.4
20260830200022 66 253 1.0 4.0 0.02 0.07 0.07 95 1019.3
20260830195822 66 261 1.0 4.0 0.02 0.07 0.07 94 1019.4
20260830195622 66 240 1.0 4.0 0.01 0.06 0.06 94 1019.5
20260830195421 66 189 1.0 4.0 0.01 0.06 0.06 94 1019.5
20260830195221 66 239 1.0 4.0 0.01 0.06 0.06 94 1019.5
20260830195021 66 236 1.0 4.0 0.01 0.06 0.06 94 1019.5
20260830194820 66 159 1.0 4.0 0.01 0.06 0.06 94 1019.5
20260830194620 66 183 2.0 4.0 0.01 0.06 0.06 93 1019.5
20260830194420 66 171 1.0 4.0 0.01 0.06 0.06 93 1019.5
20260830194219 66 248 1.0 3.0 0.01 0.06 0.06 93 1019.5
20260830194019 67 249 1.0 4.0 0.01 0.06 0.06 94 1019.5
20260830193819 67 246 0.0 4.0 0.01 0.06 0.06 94 1019.5
20260830193618 67 244 0.0 4.0 0.01 0.06 0.06 94 1019.6
20260830193418 67 242 1.0 4.0 0.01 0.06 0.06 93 1019.6
20260830193218 67 245 1.0 4.0 0.00 0.05 0.05 93 1019.6
20260830193018 67 254 1.0 4.0 0.00 0.05 0.05 93 1019.6
20260830192817 67 241 0.0 3.0 0.00 0.05 0.05 93 1019.6
20260830192617 67 241 0.0 3.0 0.00 0.05 0.05 93 1019.6
20260830192417 67 241 0.0 3.0 0.00 0.05 0.05 93 1019.6
20260830192216 67 238 1.0 4.0 0.00 0.05 0.05 93 1019.6
20260830192016 67 120 1.0 4.0 0.00 0.05 0.05 92 1019.7
20260830191816 67 49 0.0 4.0 0.00 0.05 0.05 92 1019.7
20260830191616 67 251 1.0 4.0 0.00 0.05 0.05 92 1019.6
20260830191415 67 241 1.0 4.0 0.00 0.05 0.05 91 1019.6
20260830191215 67 251 0.0 5.0 0.00 0.05 0.05 91 1019.6
20260830191014 67 249 1.0 5.0 0.00 0.05 0.05 91 1019.6
20260830190814 67 162 0.0 5.0 0.00 0.05 0.05 91 1019.7
20260830190614 67 121 1.0 5.0 0.00 0.05 0.05 91 1019.6
20260830190414 67 128 1.0 5.0 0.00 0.05 0.05 91 1019.6
20260830190213 68 237 1.0 5.0 0.00 0.05 0.05 90 1019.6
20260830190013 68 253 0.0 4.0 0.00 0.05 0.05 91 1019.6
20260830185813 68 253 0.0 4.0 0.00 0.05 0.05 91 1019.6
20260830185612 68 265 1.0 4.0 0.00 0.05 0.05 90 1019.5
20260830185412 68 238 1.0 5.0 0.00 0.05 0.05 90 1019.5
20260830185212 68 208 1.0 5.0 0.00 0.05 0.05 90 1019.6
20260830185011 68 229 2.0 5.0 0.00 0.05 0.05 89 1019.6
20260830184811 68 139 2.0 5.0 0.00 0.05 0.05 89 1019.5
20260830184611 68 266 1.0 5.0 0.00 0.05 0.05 89 1019.6
20260830184410 68 254 2.0 8.0 0.00 0.05 0.05 89 1019.6
20260830184210 68 225 2.0 8.0 0.00 0.05 0.05 89 1019.6
20260830184010 68 247 1.0 8.0 0.00 0.05 0.05 89 1019.6
20260830183810 68 215 3.0 8.0 0.00 0.05 0.05 90 1019.6
20260830183609 68 180 3.0 8.0 0.00 0.05 0.05 90 1019.6
20260830183409 68 203 2.0 7.0 0.00 0.05 0.05 91 1019.6
20260830183209 68 258 0.0 5.0 0.00 0.05 0.05 92 1019.6
20260830183008 68 235 1.0 5.0 0.00 0.05 0.05 92 1019.6
20260830182808 68 186 1.0 5.0 0.00 0.05 0.05 91 1019.6
20260830182608 67 238 1.0 4.0 0.00 0.05 0.05 92 1019.7
20260830182407 67 237 1.0 5.0 0.00 0.05 0.05 92 1019.6
20260830182207 67 241 2.0 5.0 0.00 0.05 0.05 92 1019.6
20260830182007 67 220 2.0 5.0 0.00 0.05 0.05 92 1019.7
20260830181806 67 210 2.0 5.0 0.00 0.05 0.05 91 1019.7
20260830181606 67 215 2.0 6.0 0.00 0.05 0.05 91 1019.6
20260830181406 67 250 1.0 6.0 0.00 0.05 0.05 91 1019.7
20260830181205 67 246 2.0 6.0 0.00 0.05 0.05 91 1019.7
20260830181005 67 219 2.0 6.0 0.00 0.05 0.05 91 1019.8
20260830180805 67 237 1.0 6.0 0.00 0.05 0.05 91 1019.8
20260830180604 67 233 1.0 4.0 0.00 0.05 0.05 91 1019.7
20260830180404 67 231 1.0 4.0 0.00 0.05 0.05 91 1019.7
20260830180204 67 236 1.0 3.0 0.00 0.05 0.05 91 1019.7
20260830180004 67 244 1.0 3.0 0.00 0.05 0.05 91 1019.7
20260830175803 67 270 1.0 3.0 0.00 0.05 0.05 91 1019.7
20260830175603 67 221 1.0 3.0 0.00 0.05 0.05 90 1019.8
20260830175403 67 238 1.0 4.0 0.00 0.05 0.05 90 1019.8
20260830175202 67 239 0.0 4.0 0.00 0.05 0.05 90 1019.8
20260830175002 67 236 1.0 4.0 0.00 0.05 0.05 90 1019.8
20260830174802 67 233 1.0 4.0 0.00 0.05 0.05 90 1019.9
20260830174601 67 230 0.0 3.0 0.00 0.05 0.05 90 1019.9
20260830174401 67 230 0.0 5.0 0.00 0.05 0.05 90 1019.9
20260830174201 67 230 0.0 5.0 0.00 0.05 0.05 90 1019.9
20260830174001 67 230 1.0 5.0 0.00 0.05 0.05 90 1019.9
20260830173800 67 214 2.0 5.0 0.00 0.05 0.05 89 1019.9
20260830173600 67 129 2.0 5.0 0.00 0.05 0.05 89 1019.9
20260830173400 67 143 1.0 5.0 0.00 0.05 0.05 89 1019.9
20260830173159 67 139 1.0 5.0 0.00 0.05 0.05 89 1020.0
20260830172959 67 137 1.0 5.0 0.00 0.05 0.05 88 1020.0
20260830172759 68 152 1.0 5.0 0.00 0.05 0.05 88 1020.1
20260830172558 68 74 2.0 5.0 0.00 0.05 0.05 88 1020.1
20260830172358 68 111 2.0 5.0 0.00 0.05 0.05 89 1020.1
20260830172158 68 130 1.0 5.0 0.00 0.05 0.05 89 1020.1
20260830171957 68 131 0.0 5.0 0.00 0.05 0.05 90 1020.1
20260830171757 68 148 1.0 5.0 0.00 0.05 0.05 90 1020.1
20260830171557 68 169 1.0 5.0 0.00 0.05 0.05 89 1020.1
20260830171356 68 167 1.0 5.0 0.00 0.05 0.05 89 1020.1
20260830171156 68 114 0.0 4.0 0.00 0.05 0.05 90 1020.0
20260830170956 68 114 0.0 4.0 0.00 0.05 0.05 90 1020.0
20260830170756 68 114 0.0 4.0 0.00 0.05 0.05 91 1019.9
20260830170555 68 122 1.0 4.0 0.00 0.05 0.05 90 1020.0
20260830170355 68 133 1.0 4.0 0.00 0.05 0.05 90 1020.0
20260830170155 68 223 1.0 4.0 0.00 0.05 0.05 90 1020.1
20260830165954 69 244 0.0 2.0 0.00 0.05 0.05 91 1020.0
20260830165754 68 244 0.0 2.0 0.00 0.05 0.05 91 1019.9
20260830165554 68 244 0.0 2.0 0.00 0.05 0.05 91 1019.8
20260830165353 68 244 1.0 2.0 0.00 0.05 0.05 90 1019.8
20260830165153 68 242 0.0 1.0 0.00 0.05 0.05 91 1019.8
20260830164953 68 242 0.0 2.0 0.00 0.05 0.05 91 1019.8
20260830164752 68 242 0.0 2.0 0.00 0.05 0.05 91 1019.8
20260830164552 68 242 0.0 3.0 0.00 0.05 0.05 91 1019.8
20260830164352 68 243 0.0 3.0 0.00 0.05 0.05 91 1019.7
20260830164151 68 244 0.0 4.0 0.00 0.05 0.05 91 1019.7
20260830163951 68 261 0.0 4.0 0.00 0.05 0.05 91 1019.8
20260830163751 68 211 1.0 4.0 0.00 0.05 0.05 91 1019.7
20260830163551 68 232 1.0 4.0 0.00 0.05 0.05 91 1019.8
20260830163350 68 213 1.0 4.0 0.00 0.05 0.05 91 1019.8
20260830163150 68 155 0.0 2.0 0.00 0.05 0.05 91 1019.9
20260830162950 68 149 0.0 2.0 0.00 0.05 0.05 91 1019.9
20260830162749 68 156 0.0 2.0 0.00 0.05 0.05 91 1019.9
20260830162549 68 275 0.0 2.0 0.00 0.05 0.05 91 1019.8
20260830162349 68 279 0.0 2.0 0.00 0.05 0.05 91 1019.8
20260830162148 68 282 0.0 2.0 0.00 0.05 0.05 91 1019.9
20260830161948 68 277 0.0 3.0 0.00 0.05 0.05 92 1019.9
20260830161748 68 277 0.0 4.0 0.00 0.05 0.05 92 1019.8
20260830161547 68 136 0.0 4.0 0.00 0.05 0.05 92 1019.9
20260830161347 68 143 0.0 4.0 0.00 0.05 0.05 91 1019.8
20260830161147 68 226 0.0 4.0 0.00 0.05 0.05 91 1019.8
20260830160946 68 192 0.0 4.0 0.00 0.05 0.05 91 1019.8
20260830160746 68 188 1.0 4.0 0.00 0.05 0.05 92 1019.7
20260830160546 68 192 1.0 4.0 0.00 0.05 0.05 92 1019.9
20260830160346 68 217 0.0 5.0 0.00 0.05 0.05 92 1019.8
20260830160145 68 113 0.0 5.0 0.00 0.05 0.05 92 1019.8
20260830155945 68 114 0.0 5.0 0.00 0.05 0.05 92 1019.9
20260830155745 68 128 0.0 5.0 0.00 0.05 0.05 92 1019.9
20260830155544 68 183 2.0 5.0 0.00 0.05 0.05 92 1019.8
20260830155344 68 177 1.0 5.0 0.00 0.05 0.05 92 1019.8
20260830155144 68 260 0.0 4.0 0.00 0.05 0.05 93 1019.9
20260830154943 68 225 0.0 4.0 0.00 0.05 0.05 93 1019.9
20260830154743 68 204 1.0 4.0 0.01 0.05 0.05 93 1019.9
20260830154543 68 210 1.0 4.0 0.01 0.05 0.05 94 1020.0
20260830154342 68 229 1.0 3.0 0.01 0.05 0.05 94 1020.0
20260830154142 68 229 0.0 3.0 0.01 0.05 0.05 94 1020.0
20260830153942 68 229 0.0 2.0 0.01 0.05 0.05 94 1019.9
20260830153742 68 229 0.0 2.0 0.01 0.05 0.05 94 1019.9
20260830153541 68 229 0.0 2.0 0.01 0.05 0.05 94 1019.8
20260830153341 68 0 0.0 1.0 0.01 0.05 0.05 94 1019.9
20260830153141 68 229 0.0 1.0 0.01 0.05 0.05 94 1020.0
20260830152940 68 229 0.0 2.0 0.01 0.05 0.05 94 1019.9
20260830152740 68 229 0.0 2.0 0.01 0.05 0.05 94 1019.9
20260830152540 68 229 0.0 2.0 0.01 0.05 0.05 94 1020.0
20260830152339 68 229 0.0 2.0 0.01 0.05 0.05 95 1020.0
20260830152139 68 209 0.0 2.0 0.01 0.05 0.05 95 1020.0
20260830151939 68 151 0.0 2.0 0.01 0.05 0.05 95 1020.0
20260830151738 68 0 0.0 3.0 0.01 0.05 0.05 95 1020.1
20260830151538 68 151 0.0 3.0 0.01 0.05 0.05 95 1020.1
20260830151338 68 151 0.0 3.0 0.01 0.05 0.05 95 1020.1
20260830151137 68 153 0.0 3.0 0.01 0.05 0.05 95 1020.0
20260830150937 68 321 1.0 3.0 0.01 0.05 0.05 95 1020.0
20260830150737 68 12 0.0 3.0 0.01 0.05 0.05 96 1020.1
20260830150537 67 12 0.0 1.0 0.01 0.05 0.05 96 1020.1
20260830150336 67 12 0.0 1.0 0.01 0.05 0.05 96 1020.2
20260830150136 67 12 0.0 1.0 0.01 0.05 0.05 96 1020.2
20260830145936 67 12 0.0 1.0 0.01 0.05 0.05 96 1020.2
20260830145735 67 12 0.0 1.0 0.01 0.05 0.05 96 1020.2
20260830145535 67 12 0.0 1.0 0.02 0.05 0.05 96 1020.2
20260830145335 67 12 0.0 1.0 0.02 0.05 0.05 97 1020.2
20260830145134 67 12 0.0 1.0 0.02 0.05 0.05 97 1020.2
20260830144934 67 12 0.0 1.0 0.01 0.04 0.04 97 1020.2
20260830144734 67 12 0.0 1.0 0.01 0.04 0.04 98 1020.2
20260830144533 66 12 0.0 1.0 0.01 0.04 0.04 98 1020.1
20260830144333 66 12 0.0 1.0 0.01 0.04 0.04 98 1020.2
20260830144133 66 0 0.0 1.0 0.01 0.04 0.04 98 1020.1
20260830143933 66 12 0.0 1.0 0.01 0.04 0.04 97 1020.1
20260830143732 66 12 0.0 1.0 0.01 0.04 0.04 97 1020.0
20260830143532 66 12 0.0 1.0 0.01 0.04 0.04 97 1020.1
20260830143332 66 12 0.0 1.0 0.01 0.04 0.04 98 1020.1
20260830143131 66 0 0.0 0.0 0.02 0.04 0.04 98 1020.1
20260830142931 66 0 0.0 0.0 0.02 0.04 0.04 98 1020.1
20260830142731 65 0 0.0 0.0 0.02 0.04 0.04 98 1020.1
20260830142530 65 0 0.0 0.0 0.02 0.04 0.04 98 1020.0
20260830142330 65 0 0.0 0.0 0.03 0.04 0.04 97 1020.0
20260830142130 65 0 0.0 1.0 0.03 0.04 0.04 97 1020.0
20260830141929 65 0 0.0 1.0 0.03 0.04 0.04 98 1020.0
20260830141729 65 0 0.0 2.0 0.03 0.04 0.04 97 1020.0
20260830141529 65 0 0.0 2.0 0.03 0.04 0.04 97 1020.0
20260830141329 65 12 0.0 2.0 0.03 0.04 0.04 97 1020.0
20260830141128 65 12 0.0 2.0 0.04 0.04 0.04 97 1020.0
20260830140928 65 12 0.0 2.0 0.04 0.04 0.04 97 1020.0
20260830140728 65 12 0.0 3.0 0.04 0.04 0.04 97 1020.0
20260830140527 65 12 0.0 4.0 0.04 0.04 0.04 97 1020.1
20260830140327 65 12 0.0 5.0 0.04 0.04 0.04 97 1020.1
20260830140127 65 72 1.0 5.0 0.04 0.04 0.04 97 1020.1
20260830135926 65 48 1.0 5.0 0.04 0.04 0.04 97 1020.1
20260830135726 65 22 1.0 5.0 0.04 0.04 0.04 97 1020.1
20260830135526 65 349 1.0 3.0 0.03 0.03 0.03 97 1020.1
20260830135325 65 4 1.0 4.0 0.03 0.03 0.03 97 1020.1
20260830135125 65 26 0.0 4.0 0.03 0.03 0.03 97 1020.2
20260830134925 65 20 1.0 4.0 0.03 0.03 0.03 97 1020.2
20260830134724 65 15 1.0 4.0 0.03 0.03 0.03 96 1020.1
20260830134524 66 42 1.0 4.0 0.03 0.03 0.03 96 1020.0
20260830134324 66 48 0.0 3.0 0.03 0.03 0.03 96 1020.0
20260830134124 66 55 0.0 3.0 0.03 0.03 0.03 96 1020.0
20260830133923 66 117 0.0 3.0 0.03 0.03 0.03 96 1020.1
20260830133723 66 116 0.0 1.0 0.03 0.03 0.03 96 1020.1
20260830133523 66 83 0.0 1.0 0.03 0.03 0.03 96 1020.1
20260830133322 66 14 0.0 1.0 0.03 0.03 0.03 96 1020.1
20260830133122 66 14 0.0 1.0 0.02 0.02 0.02 96 1020.1
20260830132922 66 14 0.0 1.0 0.02 0.02 0.02 96 1020.1
20260830132721 66 17 0.0 1.0 0.02 0.02 0.02 96 1020.0
20260830132521 66 33 0.0 3.0 0.02 0.02 0.02 95 1020.1
20260830132321 66 48 0.0 3.0 0.01 0.01 0.01 95 1020.0
20260830132120 66 0 0.0 3.0 0.01 0.01 0.01 95 1020.0
20260830131920 66 74 0.0 3.0 0.01 0.01 0.01 95 1020.0
20260830131720 66 78 1.0 3.0 0.01 0.01 0.01 95 1019.9
20260830131519 66 334 0.0 3.0 0.01 0.01 0.01 95 1019.8
20260830131319 66 322 0.0 2.0 0.01 0.01 0.01 94 1019.8
20260830131119 66 321 0.0 2.0 0.00 0.00 0.00 94 1019.7
20260830130919 66 1 0.0 2.0 0.00 0.00 0.00 94 1019.6
20260830130718 66 90 0.0 2.0 0.00 0.00 0.00 94 1019.7
20260830130518 66 79 0.0 2.0 0.00 0.00 0.00 94 1019.7
20260830130318 66 340 0.0 3.0 0.00 0.00 0.00 94 1019.7
20260830130117 66 316 0.0 4.0 0.00 0.00 0.00 94 1019.7
20260830125917 67 68 0.0 4.0 0.00 0.00 0.00 94 1019.8
20260830125717 66 74 0.0 4.0 0.00 0.00 0.00 93 1019.8
20260830125516 67 117 1.0 4.0 0.00 0.00 0.00 93 1019.8
20260830125316 67 0 0.0 0.0 0.00 0.00 0.00 93 1019.8
20260830125116 67 0 0.0 0.0 0.00 0.00 0.00 93 1019.9
20260830124915 67 0 0.0 0.0 0.00 0.00 0.00 92 1019.8
20260830124715 67 0 0.0 0.0 0.00 0.00 0.00 92 1019.9
20260830124515 67 0 0.0 0.0 0.00 0.00 0.00 92 1019.8
20260830124314 67 0 0.0 0.0 0.00 0.00 0.00 92 1019.8
20260830124114 67 0 0.0 1.0 0.00 0.00 0.00 92 1019.8
20260830123914 67 0 0.0 1.0 0.00 0.00 0.00 91 1019.8
20260830123714 67 0 0.0 1.0 0.00 0.00 0.00 91 1019.8
20260830123513 67 0 0.0 3.0 0.00 0.00 0.00 91 1019.7
20260830123313 67 233 0.0 3.0 0.00 0.00 0.00 91 1019.7
20260830123113 67 233 0.0 4.0 0.00 0.00 0.00 91 1019.7
20260830122912 67 233 0.0 4.0 0.00 0.00 0.00 90 1019.6
20260830122712 67 228 1.0 4.0 0.00 0.00 0.00 90 1019.6
20260830122512 67 236 1.0 4.0 0.00 0.00 0.00 90 1019.6
20260830122311 67 233 2.0 4.0 0.00 0.00 0.00 90 1019.6
20260830122111 67 221 1.0 3.0 0.00 0.00 0.00 90 1019.5
20260830121911 67 195 1.0 3.0 0.00 0.00 0.00 90 1019.6
20260830121710 67 189 1.0 3.0 0.00 0.00 0.00 90 1019.6
20260830121510 67 223 1.0 3.0 0.00 0.00 0.00 89 1019.7
20260830121310 67 236 0.0 2.0 0.00 0.00 0.00 89 1019.7
20260830121110 67 233 0.0 2.0 0.00 0.00 0.00 89 1019.7
20260830120909 67 230 0.0 2.0 0.00 0.00 0.00 89 1019.7
20260830120709 67 230 0.0 2.0 0.00 0.00 0.00 88 1019.7
20260830120509 67 230 0.0 2.0 0.00 0.00 0.00 88 1019.7
20260830120308 67 228 0.0 2.0 0.00 0.00 0.00 88 1019.7
20260830120108 67 148 1.0 2.0 0.00 0.00 0.00 87 1019.7
20260830115908 67 333 0.0 2.0 0.00 0.00 0.00 87 1019.7
20260830115707 67 333 0.0 2.0 0.00 0.00 0.00 86 1019.6
20260830115507 67 0 0.0 0.0 0.00 0.00 0.00 86 1019.5
20260830115307 67 0 0.0 0.0 0.00 0.00 0.00 86 1019.4
20260830115106 67 0 0.0 0.0 0.00 0.00 0.00 86 1019.3
20260830114906 67 0 0.0 0.0 0.00 0.00 0.00 86 1019.3
20260830114706 67 0 0.0 0.0 0.00 0.00 0.00 86 1019.3
20260830114506 67 0 0.0 1.0 0.00 0.00 0.00 86 1019.3
20260830114305 67 0 0.0 1.0 0.00 0.00 0.00 86 1019.2
20260830114105 67 0 0.0 2.0 0.00 0.00 0.00 86 1019.2
20260830113905 67 267 0.0 2.0 0.00 0.00 0.00 86 1019.2
20260830113704 67 267 0.0 2.0 0.00 0.00 0.00 86 1019.1
20260830113504 67 267 0.0 2.0 0.00 0.00 0.00 86 1019.1
20260830113304 67 0 0.0 0.0 0.00 0.00 0.00 86 1019.0
20260830113103 67 0 0.0 0.0 0.00 0.00 0.00 87 1019.1
20260830112903 68 0 0.0 0.0 0.00 0.00 0.00 87 1019.1
20260830112703 68 0 0.0 1.0 0.00 0.00 0.00 87 1019.1
20260830112502 67 0 0.0 1.0 0.00 0.00 0.00 88 1019.0
20260830112305 68 0 0.0 1.0 0.00 0.00 0.00 88 1019.0
20260830112102 68 267 0.0 1.0 0.00 0.00 0.00 88 1019.0
20260830111901 68 267 0.0 1.0 0.00 0.00 0.00 88 1019.1
20260830111701 68 267 0.0 3.0 0.00 0.00 0.00 88 1019.1
20260830111501 68 245 0.0 4.0 0.00 0.00 0.00 88 1019.2
20260830111301 68 116 0.0 5.0 0.00 0.00 0.00 88 1019.1
20260830111100 68 210 1.0 5.0 0.00 0.00 0.00 88 1018.9
20260830110900 68 218 2.0 5.0 0.00 0.00 0.00 89 1018.9
20260830110700 68 232 2.0 5.0 0.00 0.00 0.00 89 1018.8
20260830110459 68 235 0.0 5.0 0.00 0.00 0.00 89 1018.9
20260830110259 68 238 1.0 3.0 0.00 0.00 0.00 89 1019.0
20260830110059 68 245 1.0 3.0 0.00 0.00 0.00 89 1019.0
20260830105858 68 246 1.0 3.0 0.00 0.00 0.00 89 1019.0
20260830105658 68 246 1.0 4.0 0.00 0.00 0.00 89 1019.0
20260830105458 68 246 1.0 4.0 0.00 0.00 0.00 89 1018.9
20260830105257 68 216 1.0 4.0 0.00 0.00 0.00 89 1018.9
20260830105057 68 204 1.0 4.0 0.00 0.00 0.00 89 1018.8
20260830104857 68 198 1.0 4.0 0.00 0.00 0.00 89 1018.8
20260830104656 68 219 1.0 4.0 0.00 0.00 0.00 89 1018.8
20260830104456 68 232 1.0 4.0 0.00 0.00 0.00 90 1018.8
20260830104256 68 232 1.0 4.0 0.00 0.00 0.00 90 1018.8
20260830104056 68 220 2.0 4.0 0.00 0.00 0.00 90 1018.7
20260830103855 68 189 1.0 4.0 0.00 0.00 0.00 90 1018.8
20260830103655 68 158 0.0 4.0 0.00 0.00 0.00 90 1018.8
20260830103455 68 194 1.0 4.0 0.00 0.00 0.00 90 1018.7
20260830103254 68 210 1.0 4.0 0.00 0.00 0.00 90 1018.8
20260830103054 68 229 1.0 4.0 0.00 0.00 0.00 90 1018.8
20260830102854 68 239 0.0 3.0 0.00 0.00 0.00 90 1018.8
20260830102653 68 183 0.0 3.0 0.00 0.00 0.00 90 1018.9
20260830102453 68 162 1.0 3.0 0.00 0.00 0.00 90 1018.9
20260830102253 68 222 1.0 3.0 0.00 0.00 0.00 90 1018.8
20260830102052 68 232 0.0 4.0 0.00 0.00 0.00 90 1018.8
20260830101852 68 232 0.0 4.0 0.00 0.00 0.00 90 1018.8
20260830101652 68 232 1.0 4.0 0.00 0.00 0.00 90 1018.9
20260830101452 68 232 1.0 4.0 0.00 0.00 0.00 90 1019.0
20260830101251 68 217 1.0 4.0 0.00 0.00 0.00 90 1019.0
20260830101051 68 230 1.0 4.0 0.00 0.00 0.00 90 1019.0
20260830100851 68 204 1.0 4.0 0.00 0.00 0.00 90 1019.1
20260830100650 68 224 1.0 4.0 0.00 0.00 0.00 90 1019.0
20260830100450 68 218 0.0 2.0 0.00 0.00 0.00 89 1019.1
20260830100250 68 218 0.0 1.0 0.00 0.00 0.00 89 1019.1
20260830100049 68 218 0.0 1.0 0.00 0.00 0.00 89 1019.2
20260830095849 68 218 0.0 1.0 0.00 0.00 0.00 89 1019.1
20260830095649 68 211 0.0 2.0 0.00 0.00 0.00 89 1019.2
20260830095448 68 204 0.0 2.0 0.00 0.00 0.00 89 1019.1
20260830095248 68 204 0.0 2.0 0.00 0.00 0.00 89 1019.0
20260830095048 68 249 0.0 4.0 0.00 0.00 0.00 89 1019.0
20260830094847 68 293 0.0 4.0 0.00 0.00 0.00 89 1019.0
20260830094647 68 293 0.0 4.0 0.00 0.00 0.00 89 1019.0
20260830094447 68 293 1.0 4.0 0.00 0.00 0.00 89 1019.1
20260830094246 68 253 1.0 4.0 0.00 0.00 0.00 89 1019.1
20260830094046 68 222 1.0 3.0 0.00 0.00 0.00 89 1019.0
20260830093846 67 213 1.0 3.0 0.00 0.00 0.00 89 1019.0
20260830093646 67 241 1.0 3.0 0.00 0.00 0.00 89 1019.0
20260830093445 67 248 0.0 2.0 0.00 0.00 0.00 89 1019.0
20260830093245 67 248 0.0 3.0 0.00 0.00 0.00 89 1019.1
20260830093045 67 248 0.0 3.0 0.00 0.00 0.00 89 1019.0
20260830092844 67 248 0.0 3.0 0.00 0.00 0.00 89 1019.0
20260830092644 67 248 1.0 3.0 0.00 0.00 0.00 89 1018.9
20260830092444 67 236 1.0 3.0 0.00 0.00 0.00 89 1018.8
20260830092243 67 228 1.0 2.0 0.00 0.00 0.00 89 1018.8
20260830092043 67 228 0.0 2.0 0.00 0.00 0.00 89 1018.7
20260830091843 67 228 0.0 2.0 0.00 0.00 0.00 89 1018.7
20260830091642 67 228 0.0 3.0 0.00 0.00 0.00 89 1018.7
20260830091442 67 228 0.0 3.0 0.00 0.00 0.00 89 1018.7
20260830091242 67 228 0.0 4.0 0.00 0.00 0.00 89 1018.7
20260830091042 67 228 0.0 4.0 0.00 0.00 0.00 89 1018.7
20260830090841 67 232 1.0 4.0 0.00 0.00 0.00 89 1018.8
20260830090641 67 224 1.0 4.0 0.00 0.00 0.00 89 1018.8
20260830090441 67 238 1.0 4.0 0.00 0.00 0.00 89 1018.9
20260830090240 67 185 0.0 4.0 0.00 0.00 0.00 90 1018.9
20260830090040 67 169 1.0 4.0 0.00 0.00 0.00 90 1018.9
20260830085840 67 243 1.0 3.0 0.00 0.00 0.00 90 1018.9
20260830085639 67 246 0.0 2.0 0.00 0.00 0.00 90 1018.9
20260830085439 67 246 0.0 2.0 0.00 0.00 0.00 90 1018.9
20260830085239 67 246 0.0 2.0 0.00 0.00 0.00 90 1018.8
20260830085038 67 203 0.0 2.0 0.00 0.00 0.00 90 1018.8
20260830084838 67 169 0.0 2.0 0.00 0.00 0.00 90 1018.8
20260830084638 67 219 1.0 2.0 0.00 0.00 0.00 90 1018.8
20260830084438 67 285 0.0 3.0 0.00 0.00 0.00 90 1018.8
20260830084237 67 252 0.0 3.0 0.00 0.00 0.00 90 1018.9
20260830084037 67 228 0.0 3.0 0.00 0.00 0.00 90 1018.9
20260830083837 67 228 0.0 3.0 0.00 0.00 0.00 89 1018.9
20260830083636 67 228 0.0 3.0 0.00 0.00 0.00 89 1018.9
20260830083436 67 228 0.0 3.0 0.00 0.00 0.00 89 1018.9
20260830083236 67 229 1.0 3.0 0.00 0.00 0.00 89 1018.9
20260830083035 67 231 0.0 2.0 0.00 0.00 0.00 89 1018.9
20260830082835 67 231 0.0 2.0 0.00 0.00 0.00 90 1019.0
20260830082635 67 230 0.0 3.0 0.00 0.00 0.00 90 1018.9
20260830082434 67 227 0.0 3.0 0.00 0.00 0.00 90 1019.0
20260830082234 67 227 1.0 3.0 0.00 0.00 0.00 90 1018.9
20260830082034 67 208 1.0 3.0 0.00 0.00 0.00 90 1019.0
20260830081833 67 219 1.0 3.0 0.00 0.00 0.00 90 1019.0
20260830081633 67 237 1.0 3.0 0.00 0.00 0.00 90 1019.0
20260830081433 67 265 0.0 4.0 0.00 0.00 0.00 90 1019.0
20260830081233 67 265 1.0 4.0 0.00 0.00 0.00 90 1019.1
20260830081032 67 267 1.0 4.0 0.00 0.00 0.00 90 1019.0
20260830080832 67 247 1.0 4.0 0.00 0.00 0.00 89 1019.0
20260830080632 67 218 1.0 4.0 0.00 0.00 0.00 89 1019.1
20260830080431 67 247 1.0 2.0 0.00 0.00 0.00 90 1019.1
20260830080231 67 247 0.0 2.0 0.00 0.00 0.00 89 1019.1
20260830080031 67 247 0.0 2.0 0.00 0.00 0.00 90 1019.0
20260830075830 67 247 0.0 2.0 0.00 0.00 0.00 89 1019.1
20260830075630 67 247 0.0 2.0 0.00 0.00 0.00 89 1019.1
20260830075430 67 247 0.0 2.0 0.00 0.00 0.00 89 1019.1
20260830075230 67 247 0.0 2.0 0.00 0.00 0.00 89 1019.1
20260830075029 67 247 0.0 2.0 0.00 0.00 0.00 89 1019.2
20260830074829 67 247 0.0 2.0 0.00 0.00 0.00 89 1019.2
20260830074629 68 247 0.0 2.0 0.00 0.00 0.00 89 1019.2
20260830074428 68 247 0.0 2.0 0.00 0.00 0.00 89 1019.2
20260830074228 68 247 0.0 2.0 0.00 0.00 0.00 89 1019.2
20260830074028 68 247 0.0 3.0 0.00 0.00 0.00 89 1019.2
20260830073827 68 247 1.0 3.0 0.00 0.00 0.00 88 1019.2
20260830073627 68 247 1.0 4.0 0.00 0.00 0.00 88 1019.2
20260830073427 68 246 1.0 4.0 0.00 0.00 0.00 88 1019.3
20260830073226 68 239 0.0 4.0 0.00 0.00 0.00 88 1019.3
20260830073026 68 239 1.0 4.0 0.00 0.00 0.00 88 1019.2
20260830072826 68 234 2.0 4.0 0.00 0.00 0.00 87 1019.2
20260830072625 68 222 0.0 4.0 0.00 0.00 0.00 87 1019.2
20260830072425 68 217 0.0 4.0 0.00 0.00 0.00 87 1019.2
20260830072225 68 196 1.0 4.0 0.00 0.00 0.00 86 1019.3
20260830072024 68 234 1.0 4.0 0.00 0.00 0.00 86 1019.3
20260830071824 68 250 0.0 4.0 0.00 0.00 0.00 86 1019.4
20260830071624 68 248 1.0 4.0 0.00 0.00 0.00 86 1019.4
20260830071423 68 242 1.0 4.0 0.00 0.00 0.00 86 1019.4
20260830071223 68 235 2.0 4.0 0.00 0.00 0.00 86 1019.4
20260830071023 68 222 2.0 4.0 0.00 0.00 0.00 86 1019.4
20260830070823 68 245 1.0 4.0 0.00 0.00 0.00 86 1019.4
20260830070622 68 248 1.0 4.0 0.00 0.00 0.00 86 1019.5
20260830070422 68 248 1.0 4.0 0.00 0.00 0.00 86 1019.5
20260830070222 68 282 1.0 4.0 0.00 0.00 0.00 86 1019.5
20260830070021 68 216 1.0 4.0 0.00 0.00 0.00 86 1019.5
20260830065821 68 215 1.0 4.0 0.00 0.00 0.00 86 1019.5
20260830065621 68 210 1.0 3.0 0.00 0.00 0.00 86 1019.5
20260830065420 68 218 1.0 3.0 0.00 0.00 0.00 86 1019.5
20260830065220 68 227 1.0 3.0 0.00 0.00 0.00 86 1019.5
20260830065020 68 234 1.0 2.0 0.00 0.00 0.00 86 1019.6
20260830064819 68 242 1.0 3.0 0.00 0.00 0.00 86 1019.7
20260830064619 68 248 1.0 4.0 0.00 0.00 0.00 86 1019.7
20260830064419 68 248 1.0 4.0 0.00 0.00 0.00 86 1019.7
20260830064218 68 248 1.0 4.0 0.00 0.00 0.00 86 1019.7
20260830064018 68 234 1.0 4.0 0.00 0.00 0.00 86 1019.7
20260830063818 68 236 1.0 4.0 0.00 0.00 0.00 86 1019.8
20260830063618 68 255 0.0 3.0 0.00 0.00 0.00 86 1019.8
20260830063417 68 256 0.0 3.0 0.00 0.00 0.00 86 1019.8
20260830063217 68 248 0.0 3.0 0.00 0.00 0.00 86 1019.8
20260830063017 68 244 0.0 3.0 0.00 0.00 0.00 86 1019.8
20260830062816 68 244 1.0 3.0 0.00 0.00 0.00 86 1019.8
20260830062616 68 244 1.0 3.0 0.00 0.00 0.00 87 1019.7
20260830062416 68 243 1.0 2.0 0.00 0.00 0.00 87 1019.8
20260830062215 68 233 1.0 2.0 0.00 0.00 0.00 87 1019.8
20260830062015 68 226 0.0 2.0 0.00 0.00 0.00 87 1019.8
20260830061815 68 226 1.0 2.0 0.00 0.00 0.00 87 1019.7
20260830061614 68 226 0.0 2.0 0.00 0.00 0.00 87 1019.7
20260830061414 68 226 0.0 1.0 0.00 0.00 0.00 87 1019.7
20260830061214 68 226 0.0 4.0 0.00 0.00 0.00 87 1019.7
20260830061014 68 226 0.0 4.0 0.00 0.00 0.00 87 1019.8
20260830060813 68 226 0.0 4.0 0.00 0.00 0.00 87 1019.8
20260830060613 68 226 1.0 4.0 0.00 0.00 0.00 87 1019.8
20260830060413 68 227 0.0 4.0 0.00 0.00 0.00 87 1019.8
20260830060212 68 246 0.0 3.0 0.00 0.00 0.00 87 1019.8
20260830060012 68 246 0.0 3.0 0.00 0.00 0.00 87 1019.8
20260830055812 68 246 1.0 3.0 0.00 0.00 0.00 87 1019.7
20260830055611 68 246 1.0 3.0 0.00 0.00 0.00 87 1019.9
20260830055411 68 246 1.0 3.0 0.00 0.00 0.00 87 1019.9
20260830055211 68 253 1.0 3.0 0.00 0.00 0.00 87 1019.8
20260830055010 68 272 1.0 3.0 0.00 0.00 0.00 86 1019.8
20260830054810 68 268 0.0 4.0 0.00 0.00 0.00 86 1019.8
20260830054610 68 250 1.0 4.0 0.00 0.00 0.00 86 1019.8
20260830054409 68 249 0.0 4.0 0.00 0.00 0.00 86 1019.8
20260830054209 68 236 1.0 4.0 0.00 0.00 0.00 86 1019.8
20260830054009 68 236 1.0 4.0 0.00 0.00 0.00 86 1019.9
20260830053809 68 248 2.0 4.0 0.00 0.00 0.00 86 1019.9
20260830053608 68 249 0.0 3.0 0.00 0.00 0.00 86 1019.9
20260830053408 68 249 0.0 3.0 0.00 0.00 0.00 86 1019.8
20260830053208 68 249 1.0 3.0 0.00 0.00 0.00 86 1019.9
20260830053007 68 249 1.0 3.0 0.00 0.00 0.00 86 1019.9
20260830052807 68 249 1.0 3.0 0.00 0.00 0.00 86 1019.9
20260830052607 68 249 1.0 3.0 0.00 0.00 0.00 86 1019.9
20260830052406 68 249 1.0 3.0 0.00 0.00 0.00 86 1019.8
20260830052206 68 249 0.0 4.0 0.00 0.00 0.00 86 1019.9
20260830052006 68 249 1.0 4.0 0.00 0.00 0.00 86 1019.8
20260830051806 68 230 1.0 5.0 0.00 0.00 0.00 86 1019.8
20260830051605 68 203 1.0 5.0 0.00 0.00 0.00 86 1019.8
20260830051405 68 149 1.0 5.0 0.00 0.00 0.00 86 1019.8
20260830051204 68 240 1.0 5.0 0.00 0.00 0.00 86 1019.8
20260830051004 68 243 1.0 5.0 0.00 0.00 0.00 86 1019.8
20260830050804 68 247 1.0 3.0 0.00 0.00 0.00 86 1019.9
20260830050604 68 241 1.0 3.0 0.00 0.00 0.00 86 1019.9
20260830050403 68 239 1.0 3.0 0.00 0.00 0.00 86 1019.9
20260830050203 68 228 1.0 3.0 0.00 0.00 0.00 86 1019.9
20260830050003 68 235 0.0 3.0 0.00 0.00 0.00 86 1019.8
20260830045802 68 250 0.0 3.0 0.00 0.00 0.00 86 1019.9
20260830045602 68 237 1.0 4.0 0.00 0.00 0.00 86 1019.9
20260830045402 68 231 1.0 4.0 0.00 0.00 0.00 86 1019.8
20260830045201 68 235 0.0 4.0 0.00 0.00 0.00 85 1019.8
20260830045001 68 213 1.0 4.0 0.00 0.00 0.00 85 1019.9
20260830044801 68 190 1.0 4.0 0.00 0.00 0.00 85 1019.9
20260830044600 68 150 1.0 3.0 0.00 0.00 0.00 84 1019.9
20260830044400 68 203 1.0 3.0 0.00 0.00 0.00 84 1019.9
20260830044200 68 209 0.0 2.0 0.00 0.00 0.00 84 1019.8
20260830043959 68 226 1.0 3.0 0.00 0.00 0.00 83 1019.8
20260830043759 68 209 0.0 4.0 0.00 0.00 0.00 83 1019.8
20260830043559 68 204 0.0 4.0 0.00 0.00 0.00 83 1019.8
20260830043359 68 168 1.0 4.0 0.00 0.00 0.00 83 1019.9
20260830043158 68 179 1.0 4.0 0.00 0.00 0.00 82 1019.9
20260830042958 68 252 0.0 3.0 0.00 0.00 0.00 82 1019.9
20260830042758 68 252 0.0 2.0 0.00 0.00 0.00 82 1019.9
20260830042557 68 252 0.0 2.0 0.00 0.00 0.00 82 1019.9
20260830042357 68 252 1.0 2.0 0.00 0.00 0.00 82 1020.0
20260830042157 68 252 1.0 2.0 0.00 0.00 0.00 82 1020.0
20260830041956 68 252 0.0 3.0 0.00 0.00 0.00 82 1019.9
20260830041756 68 252 0.0 4.0 0.00 0.00 0.00 82 1019.9
20260830041556 68 252 1.0 4.0 0.00 0.00 0.00 82 1019.8
20260830041355 68 252 1.0 5.0 0.00 0.00 0.00 81 1019.9
20260830041155 68 241 2.0 5.0 0.00 0.00 0.00 81 1019.8
20260830040955 68 191 2.0 5.0 0.00 0.00 0.00 81 1019.9
20260830040755 68 219 3.0 5.0 0.00 0.00 0.00 81 1019.9
20260830040554 68 212 2.0 5.0 0.00 0.00 0.00 81 1019.9
20260830040354 68 212 1.0 4.0 0.00 0.00 0.00 81 1019.9
20260830040154 68 222 1.0 4.0 0.00 0.00 0.00 81 1019.9
20260830035953 68 221 0.0 4.0 0.00 0.00 0.00 81 1019.9
20260830035753 68 221 1.0 5.0 0.00 0.00 0.00 80 1019.9
20260830035553 68 221 1.0 5.0 0.00 0.00 0.00 80 1019.9
20260830035352 68 219 1.0 5.0 0.00 0.00 0.00 80 1019.9
20260830035152 68 227 2.0 5.0 0.00 0.00 0.00 80 1019.8
20260830034952 68 242 1.0 5.0 0.00 0.00 0.00 80 1019.8
20260830034752 68 234 1.0 3.0 0.00 0.00 0.00 80 1019.8
20260830034551 68 234 1.0 3.0 0.00 0.00 0.00 80 1019.8
20260830034351 68 236 2.0 3.0 0.00 0.00 0.00 80 1019.8
20260830034150 68 239 1.0 4.0 0.00 0.00 0.00 80 1019.8